Terminal Aerodrome Forecast
Issued by NWS

Home | Current Version | Previous Version | Text Only | Print | Product List | Glossary On
Versions: 1 2 3 4 5 6 7 8 9 10 11 12 13
000
FTUS45 KRIW 301100
TAFRKS
TAF
KRKS 301122Z 3012/3112 05015KT P6SM -SHRA SCT008 OVC015
      TEMPO 3012/3015 5SM RA BR BKN008
     FM301530 06015G25KT P6SM VCSH SCT018 OVC030
     FM301900 08015G25KT P6SM VCSH SCT050 BKN100
     FM310100 07010KT P6SM SCT100=

USA.gov is the U.S. government's official web portal to all federal, state and local government web resources and services.